Location: Arrakis Observatory
(44.1122°N, 95.7153°W)
Time: 14:09:09
(UTC-05:00)

Amateur Radio Satellites - All Passes

Search period start: 27 March 2015 13:39
Search period end: 28 March 2015 13:39
Location: Arrakis Observatory, 44.1122°N, 95.7153°W

Satellite Date Start Highest point End Downlink Frequencies (MHz)
Time Altitude Azimuth
Gurwin Techsat 1B 27 Mar 13:40:03 13:43:28 18° 61° (ENE) 13:47:04 435.225
HUMSAT D 27 Mar 13:40:34 13:41:38 11° 298° (WNW) 13:42:28 437.325/437.525
Oscar 19 27 Mar 13:41:36 13:46:37 61° 72° (ENE) 13:51:42 437.125/150
BEESAT 3 27 Mar 13:45:26 13:47:37 14° 326° (NW) 13:49:42 437.485
YUBILEINY 27 Mar 13:55:21 14:03:07 38° 86° (E) 14:11:05 435.215
VELOX 1 27 Mar 13:55:30 13:57:32 13° 299° (WNW) 13:59:23 145.980
SWISSCUBE 27 Mar 13:59:07 14:02:18 18° 90° (E) 14:05:38 437.505
AISAT 27 Mar 13:59:34 14:01:07 11° 300° (WNW) 14:02:28 437.250
CUBEBUG 1 27 Mar 14:01:25 14:04:39 20° 294° (WNW) 14:07:46 437.445
AIST 2 27 Mar 14:02:14 14:05:43 23° 318° (NW) 14:09:10 435.215
BEESAT 27 Mar 14:02:30 14:05:41 18° 90° (E) 14:09:01 436.000
TISAT 1 27 Mar 14:16:52 14:20:59 52° 287° (WNW) 14:25:03 437.305
SPROUT 27 Mar 14:18:48 14:22:53 43° 289° (WNW) 14:26:55 437.525
ESTCUBE 1 27 Mar 14:20:36 14:22:58 14° 298° (WNW) 14:25:08 437.505/2401.250
JAS-2 27 Mar 14:24:08 14:25:18 11° 46° (NE) 14:26:54 435.910
ITAMSAT 1 27 Mar 14:41:49 14:47:01 74° 74° (ENE) 14:52:15 435.822/435.867
ITUPSAT 1 27 Mar 14:46:54 14:51:33 47° 99° (E) 14:56:11 437.325
O/OREOS (USA 219) 27 Mar 14:55:41 15:00:16 72° 65° (ENE) 15:04:46 437.305
AO-7 27 Mar 14:58:59 15:05:48 31° 55° (NE) 15:12:48 29.400- 29.500
PCSat 27 Mar 14:59:42 15:03:23 20° 107° (ESE) 15:07:17 145.827
AIST 1 27 Mar 15:07:03 15:09:29 15° 67° (ENE) 15:12:03
Gurwin Techsat 1B 27 Mar 15:17:39 15:22:57 70° 258° (WSW) 15:28:18 435.225
Oscar 19 27 Mar 15:23:01 15:26:29 17° 271° (W) 15:29:45 437.125/150
STARS 27 Mar 15:25:14 15:27:38 15° 89° (E) 15:30:14 437.465
SWISSCUBE 27 Mar 15:35:52 15:40:34 53° 288° (WNW) 15:45:11 437.505
BEESAT 27 Mar 15:39:14 15:43:55 53° 289° (WNW) 15:48:34 436.000
YUBILEINY 27 Mar 15:51:14 15:59:47 51° 287° (WNW) 16:08:20 435.215
HORYU 2 27 Mar 15:58:16 16:02:41 77° 74° (ENE) 16:07:09 437.375
JAS-2 27 Mar 16:02:02 16:08:30 46° 66° (ENE) 16:15:42 435.910
KKS-1 27 Mar 16:22:56 16:27:25 89° 272° (W) 16:31:51 437.445
ITAMSAT 1 27 Mar 16:24:08 16:27:11 15° 272° (W) 16:29:58 435.822/435.867
ITUPSAT 1 27 Mar 16:25:30 16:29:10 22° 296° (WNW) 16:32:44 437.325
O/OREOS (USA 219) 27 Mar 16:37:15 16:39:08 12° 261° (W) 16:40:46 437.305
PCSat 27 Mar 16:40:58 16:46:21 65° 304° (NW) 16:51:47 145.827
AIST 1 27 Mar 16:43:21 16:47:35 52° 266° (W) 16:51:44
AO-7 27 Mar 16:49:46 16:58:04 70° 255° (WSW) 17:06:22 29.400- 29.500
STARS 27 Mar 17:00:13 17:04:32 56° 287° (WNW) 17:08:50 437.465
HORYU 2 27 Mar 17:38:46 17:40:00 11° 273° (W) 17:40:58 437.375
MOZHAYETS 4 27 Mar 17:42:27 17:46:49 39° 97° (E) 17:51:11
JAS-2 27 Mar 17:47:21 17:53:41 39° 267° (W) 18:00:36 435.910
AUBIESAT-1 27 Mar 17:56:13 17:59:29 18° 95° (E) 18:02:52 437.475
YUBILEINY 27 Mar 17:57:22 17:59:29 11° 313° (NW) 18:00:58 435.215
KKS-1 27 Mar 18:02:19 18:03:25 11° 300° (WNW) 18:04:17 437.445
M-CUBED/EXP-1 PRIME 27 Mar 18:18:03 18:22:24 33° 100° (E) 18:26:46 437.505
Cubesat XI-IV 27 Mar 18:26:00 18:31:15 58° 72° (ENE) 18:36:33 437.490
CUTE-I 27 Mar 18:26:28 18:31:42 58° 72° (ENE) 18:36:59 437.470
PCSat 27 Mar 18:27:49 18:30:56 15° 327° (NNW) 18:33:55 145.827
BEESAT 3 27 Mar 18:45:31 18:48:02 16° 36° (NE) 18:50:38 437.485
AO-7 27 Mar 18:48:34 18:52:36 13° 276° (W) 18:56:00 29.400- 29.500
HO-68 27 Mar 19:03:58 19:07:10 14° 49° (NE) 19:10:43 435.675
SO-50 27 Mar 19:06:07 19:08:34 15° 110° (ESE) 19:11:16 436.795
AIST 2 27 Mar 19:06:43 19:07:44 11° 29° (NNE) 19:08:53 435.215
MOZHAYETS 4 27 Mar 19:20:06 19:23:52 24° 294° (WNW) 19:27:32
STRAND 1 27 Mar 19:22:06 19:25:39 19° 90° (E) 19:29:22 437.568
CUBESAT XI-V 27 Mar 19:23:45 19:28:01 35° 96° (E) 19:32:15 437.345
PRISM 27 Mar 19:28:52 19:32:33 29° 96° (E) 19:36:13 437.425
AUBIESAT-1 27 Mar 19:29:54 19:34:41 58° 292° (WNW) 19:39:22 437.475
BEESAT 2 27 Mar 19:43:06 19:46:58 36° 47° (NE) 19:50:49 435.950
GOMX 1 27 Mar 19:45:46 19:46:53 11° 62° (ENE) 19:48:13 467.674
M-CUBED/EXP-1 PRIME 27 Mar 19:52:53 19:57:14 33° 297° (WNW) 20:01:31 437.505
RS-15 27 Mar 19:53:20 20:03:43 55° 114° (ESE) 20:14:22 29.354- 29.394
Cubesat XI-IV 27 Mar 20:07:50 20:11:49 20° 270° (W) 20:15:37 437.490
GONETS M04 27 Mar 20:08:00 20:16:24 58° 91° (E) 20:24:55
CUTE-I 27 Mar 20:08:16 20:12:14 20° 270° (W) 20:16:02 437.470
COMPASS 1 27 Mar 20:12:53 20:14:21 12° 62° (ENE) 20:16:00 437.405
BEESAT 3 27 Mar 20:22:32 20:26:40 82° 238° (WSW) 20:30:44 437.485
BRITE-PL 27 Mar 20:23:21 20:27:46 40° 72° (ENE) 20:31:56 437.365/2234.400
CANX-2 27 Mar 20:34:03 20:37:43 30° 69° (ENE) 20:41:28 2200.000
AIST 2 27 Mar 20:43:11 20:47:23 52° 51° (NE) 20:51:29 435.215
SO-50 27 Mar 20:43:55 20:48:33 73° 307° (NW) 20:53:23 436.795
HO-68 27 Mar 20:46:38 20:53:38 62° 69° (ENE) 21:00:44 435.675
CUTE 1.7 + AOD 2 27 Mar 20:48:02 20:51:55 38° 71° (ENE) 20:55:54 437.475
STRAND 1 27 Mar 21:00:16 21:05:17 55° 288° (WNW) 21:10:14 437.568
CUBESAT XI-V 27 Mar 21:01:28 21:05:21 26° 293° (WNW) 21:09:07 437.345
PRISM 27 Mar 21:04:27 21:07:58 26° 293° (WNW) 21:11:23 437.425
DX 1 27 Mar 21:12:13 21:12:27 10° 59° (ENE) 21:12:55 434.975-435.025
CINEMA 3 27 Mar 21:12:53 21:16:30 29° 69° (ENE) 21:20:08 145.822/145.860
DELFI C3 27 Mar 21:13:17 21:15:48 17° 65° (ENE) 21:18:29 145.870
DOVE 4 27 Mar 21:18:16 21:22:36 65° 74° (ENE) 21:26:47 437.250
SEEDS 27 Mar 21:19:53 21:24:04 71° 75° (ENE) 21:28:19 437.485
AAUSAT CUBESAT 2 27 Mar 21:19:57 21:23:58 50° 73° (ENE) 21:28:04 437.432
GOMX 1 27 Mar 21:20:01 21:24:34 82° 257° (WSW) 21:28:53 467.674
BEESAT 2 27 Mar 21:21:34 21:24:59 25° 245° (WSW) 21:28:17 435.950
Oscar 11 27 Mar 21:30:54 21:34:44 33° 70° (ENE) 21:38:39 145.826/435.025
UWE-3 27 Mar 21:37:14 21:40:33 24° 68° (ENE) 21:43:58 435.000/436.395/437.385
CUBEBUG 2 27 Mar 21:37:52 21:41:27 29° 69° (ENE) 21:45:05 437.445
FUNcube-1 27 Mar 21:38:28 21:41:29 20° 66° (ENE) 21:44:36 145.935
COMPASS 1 27 Mar 21:45:21 21:49:31 73° 258° (WSW) 21:53:44 437.405
AISAT 27 Mar 21:47:19 21:48:20 11° 60° (ENE) 21:49:34 437.250
ZACube-1 27 Mar 21:50:04 21:53:31 27° 68° (ENE) 21:57:04 437.345
BRITE-PL 27 Mar 22:02:46 22:06:28 21° 267° (W) 22:09:52 437.365/2234.400
RS-15 27 Mar 22:05:45 22:16:19 51° 319° (NW) 22:27:09 29.354- 29.394
GONETS M04 27 Mar 22:06:00 22:13:46 34° 293° (WNW) 22:21:28
CANX-2 27 Mar 22:10:07 22:13:41 25° 266° (W) 22:17:13 2200.000
CUSAT 1 27 Mar 22:11:02 22:13:57 71° 281° (W) 22:16:34 437.405
AIST 2 27 Mar 22:22:43 22:25:38 18° 248° (WSW) 22:28:23 435.215
CUTE 1.7 + AOD 2 27 Mar 22:24:51 22:28:02 20° 269° (W) 22:31:09 437.475
SO-50 27 Mar 22:27:04 22:30:01 16° 328° (NNW) 22:32:56 436.795
50 SAT 27 Mar 22:29:17 22:32:25 24° 68° (ENE) 22:35:37 437.505
HO-68 27 Mar 22:35:54 22:41:54 27° 268° (W) 22:47:46 435.675
UKube-1 27 Mar 22:36:05 22:40:24 68° 74° (ENE) 22:44:44 .
DX 1 27 Mar 22:43:41 22:48:04 86° 76° (ENE) 22:52:27 434.975-435.025
DELFI C3 27 Mar 22:46:45 22:50:40 46° 261° (W) 22:54:38 145.870
DANDE 27 Mar 22:49:05 22:51:51 28° 284° (WNW) 22:54:16 436.750
CINEMA 3 27 Mar 22:50:14 22:53:46 25° 266° (W) 22:57:11 145.822/145.860
HUMSAT D 27 Mar 22:55:31 22:59:35 71° 75° (ENE) 23:03:42 437.325/437.525
AAUSAT CUBESAT 2 27 Mar 22:57:30 22:59:59 15° 271° (W) 23:02:19 437.432
DOVE 4 27 Mar 22:59:11 23:00:53 12° 272° (W) 23:02:20 437.250
SEEDS 27 Mar 22:59:25 23:00:29 11° 274° (W) 23:01:19 437.485
Oscar 11 27 Mar 23:07:29 23:11:01 24° 267° (W) 23:14:30 145.826/435.025
UWE-3 27 Mar 23:13:20 23:17:01 30° 264° (W) 23:20:42 435.000/436.395/437.385
FUNcube-1 27 Mar 23:13:46 23:17:38 37° 263° (W) 23:21:30 145.935
CUBEBUG 2 27 Mar 23:14:45 23:18:12 24° 266° (W) 23:21:36 437.445
VELOX 1 27 Mar 23:16:01 23:20:28 80° 75° (ENE) 23:24:56 145.980
UNISAT 6 27 Mar 23:16:38 23:20:22 25° 94° (E) 23:24:12 437.425
AISAT 27 Mar 23:19:52 23:24:19 90° 263° (W) 23:28:47 437.250
CUBEBUG 1 27 Mar 23:21:56 23:26:06 42° 71° (ENE) 23:30:16 437.445
POPSAT HIP 1 27 Mar 23:26:05 23:28:25 15° 90° (E) 23:30:57 437.405
ZACube-1 27 Mar 23:26:19 23:29:53 27° 266° (W) 23:33:25 437.345
TIGRISAT 27 Mar 23:27:35 23:31:36 31° 95° (E) 23:35:44 435.000
BUGSAT 1 27 Mar 23:35:52 23:37:34 13° 89° (E) 23:39:28 437.445
TISAT 1 27 Mar 23:36:54 23:39:09 15° 63° (ENE) 23:41:34 437.305
NANOSAT C BR1 27 Mar 23:36:58 23:39:59 19° 92° (E) 23:43:07 145.865
POLYITAN 1 27 Mar 23:39:20 23:42:32 21° 92° (E) 23:45:51 437.675
SPROUT 27 Mar 23:39:44 23:42:36 18° 65° (ENE) 23:45:36 437.525
ESTCUBE 1 27 Mar 23:42:58 23:47:32 79° 74° (ENE) 23:52:06 437.505/2401.250
PCSat 27 Mar 23:44:32 23:49:01 26° 43° (NE) 23:53:35 145.827
ISS 27 Mar 23:50:47 23:53:31 26° 138° (SE) 23:56:18 145.825
ANTELSAT 27 Mar 23:56:33 00:01:06 63° 101° (ESE) 00:05:43 437.575/2403.000
YUBILEINY 28 Mar 00:03:34 00:09:40 21° 58° (ENE) 00:16:04 435.215
50 SAT 28 Mar 00:03:51 00:07:16 28° 265° (W) 00:10:39 437.505
UKube-1 28 Mar 00:15:19 00:17:06 12° 272° (W) 00:18:40 .
QB50P1 28 Mar 00:17:07 00:21:15 53° 100° (E) 00:25:24 145.935-145.965
DUCHIFAT 1 28 Mar 00:20:03 00:24:12 56° 100° (E) 00:28:20 145.980
RS-15 28 Mar 00:23:11 00:32:09 27° 351° (N) 00:41:18 29.354- 29.394
QB50P2 28 Mar 00:31:13 00:35:29 78° 102° (ESE) 00:39:43 145.880/145.840
HUMSAT D 28 Mar 00:35:36 00:35:57 10° 274° (W) 00:36:03 437.325/437.525
UNISAT 6 28 Mar 00:53:04 00:57:15 36° 290° (WNW) 01:01:27 437.425
VELOX 1 28 Mar 00:56:53 00:57:43 10° 274° (W) 00:58:16 145.980
CUBEBUG 1 28 Mar 00:59:25 01:02:42 19° 268° (W) 01:05:50 437.445
POPSAT HIP 1 28 Mar 01:00:35 01:04:41 51° 287° (WNW) 01:08:47 437.405
TIGRISAT 28 Mar 01:04:23 01:08:19 29° 292° (WNW) 01:12:15 435.000
SWISSCUBE 28 Mar 01:07:04 01:10:57 26° 66° (ENE) 01:14:56 437.505
BUGSAT 1 28 Mar 01:09:32 01:13:30 55° 287° (WNW) 01:17:25 437.445
BEESAT 28 Mar 01:10:22 01:14:14 25° 66° (ENE) 01:18:12 436.000
TISAT 1 28 Mar 01:10:23 01:14:33 58° 259° (W) 01:18:44 437.305
NANOSAT C BR1 28 Mar 01:12:06 01:16:03 39° 289° (WNW) 01:19:57 145.865
SPROUT 28 Mar 01:14:16 01:18:24 46° 261° (W) 01:22:33 437.525
POLYITAN 1 28 Mar 01:14:43 01:18:37 36° 290° (WNW) 01:22:29 437.675
ESTCUBE 1 28 Mar 01:23:40 01:25:05 11° 274° (W) 01:26:13 437.505/2401.250
ISS 28 Mar 01:26:38 01:29:48 48° 335° (NNW) 01:32:58 145.825
PCSat 28 Mar 01:27:31 01:32:51 59° 244° (WSW) 01:38:09 145.827
ANTELSAT 28 Mar 01:34:41 01:37:29 16° 297° (WNW) 01:40:08 437.575/2403.000
KKS-1 28 Mar 01:49:16 01:50:48 12° 61° (ENE) 01:52:32 437.445
Oscar 19 28 Mar 01:52:30 01:56:05 19° 90° (E) 01:59:49 437.125/150
QB50P1 28 Mar 01:54:10 01:56:47 16° 296° (WNW) 01:59:15 145.935-145.965
ITUPSAT 1 28 Mar 01:55:04 01:59:50 65° 73° (ENE) 02:04:38 437.325
DUCHIFAT 1 28 Mar 01:57:11 01:59:39 15° 296° (WNW) 02:01:59 145.980
YUBILEINY 28 Mar 01:59:07 02:08:02 88° 80° (E) 02:16:50 435.215
QB50P2 28 Mar 02:09:22 02:10:51 11° 299° (WNW) 02:12:07 145.880/145.840
STARS 28 Mar 02:23:57 02:26:44 17° 64° (ENE) 02:29:38 437.465
RS-15 28 Mar 02:39:11 02:49:01 33° 25° (NNE) 02:59:23 29.354- 29.394
SWISSCUBE 28 Mar 02:44:08 02:48:39 39° 263° (W) 02:53:10 437.505
BEESAT 28 Mar 02:47:25 02:51:56 39° 263° (W) 02:56:26 436.000
ITAMSAT 1 28 Mar 02:53:55 02:57:55 23° 92° (E) 03:02:02 435.822/435.867
ISS 28 Mar 03:04:07 03:06:44 22° 355° (N) 03:09:19 145.825
KKS-1 28 Mar 03:22:26 03:26:52 82° 256° (WSW) 03:31:21 437.445
Oscar 19 28 Mar 03:30:47 03:35:51 57° 289° (WNW) 03:40:55 437.125/150
Gurwin Techsat 1B 28 Mar 03:32:27 03:37:29 42° 97° (E) 03:42:31 435.225
SO-50 28 Mar 03:33:59 03:38:08 26° 40° (NE) 03:42:20 436.795
ITUPSAT 1 28 Mar 03:35:25 03:38:15 15° 271° (W) 03:40:53 437.325
HORYU 2 28 Mar 03:49:48 03:51:56 13° 88° (E) 03:54:16 437.375
YUBILEINY 28 Mar 03:57:43 04:03:49 20° 281° (W) 04:09:27 435.215
STARS 28 Mar 03:58:34 04:02:51 52° 260° (W) 04:07:09 437.465
ITAMSAT 1 28 Mar 04:32:44 04:37:43 47° 290° (WNW) 04:42:39 435.822/435.867
ISS 28 Mar 04:40:59 04:43:49 27° 14° (NNE) 04:46:40 145.825
AUBIESAT-1 28 Mar 04:45:43 04:49:06 26° 60° (ENE) 04:52:46 437.475
MOZHAYETS 4 28 Mar 04:45:46 04:50:08 43° 71° (ENE) 04:54:33
AO-7 28 Mar 04:49:51 04:57:20 37° 96° (E) 05:04:55 29.400- 29.500
RS-15 28 Mar 04:52:02 05:03:32 80° 53° (NE) 05:15:35 29.354- 29.394
JAS-2 28 Mar 04:54:52 05:01:59 38° 92° (E) 05:08:43 435.910
M-CUBED/EXP-1 PRIME 28 Mar 05:08:09 05:12:00 48° 66° (ENE) 05:16:15 437.505
O/OREOS (USA 219) 28 Mar 05:09:07 05:13:39 64° 110° (ESE) 05:18:14 437.305
Gurwin Techsat 1B 28 Mar 05:12:48 05:17:18 28° 295° (WNW) 05:21:42 435.225
AIST 1 28 Mar 05:13:50 05:18:15 84° 98° (E) 05:22:41
SO-50 28 Mar 05:14:10 05:19:02 55° 240° (WSW) 05:23:49 436.795
HORYU 2 28 Mar 05:24:37 05:29:06 64° 286° (WNW) 05:33:34 437.375
GONETS M04 28 Mar 06:16:27 06:23:57 31° 65° (ENE) 06:31:40
ISS 28 Mar 06:17:16 06:20:29 75° 214° (SSW) 06:23:42 145.825
AUBIESAT-1 28 Mar 06:20:12 06:23:49 32° 260° (W) 06:27:42 437.475
PRISM 28 Mar 06:20:43 06:24:18 28° 68° (ENE) 06:27:57 437.425
MOZHAYETS 4 28 Mar 06:24:05 06:27:37 21° 269° (W) 06:31:02
CUBESAT XI-V 28 Mar 06:28:28 06:32:52 41° 70° (ENE) 06:37:19 437.345
STRAND 1 28 Mar 06:39:07 06:43:40 33° 67° (ENE) 06:48:17 437.568
JAS-2 28 Mar 06:39:42 06:47:12 50° 293° (WNW) 06:54:10 435.910
AO-7 28 Mar 06:42:26 06:50:28 54° 296° (WNW) 06:58:25 29.400- 29.500
Cubesat XI-IV 28 Mar 06:42:41 06:46:28 20° 90° (E) 06:50:25 437.490
CUTE-I 28 Mar 06:42:58 06:46:44 20° 90° (E) 06:50:39 437.470
M-CUBED/EXP-1 PRIME 28 Mar 06:44:41 06:47:19 16° 266° (W) 06:49:57 437.505
O/OREOS (USA 219) 28 Mar 06:50:28 06:53:35 17° 310° (NW) 06:56:35 437.305
AIST 1 28 Mar 06:56:14 06:56:41 10° 297° (WNW) 06:56:51
RS-15 28 Mar 07:05:22 07:15:07 32° 254° (WSW) 07:24:48 29.354- 29.394
VERMONT LUNAR 28 Mar 07:05:55 07:08:35 22° 159° (SSE) 07:11:18 437.305
PHONESAT 2.4 28 Mar 07:34:19 07:36:52 19° 156° (SSE) 07:39:26 2401.200-2431.200
DANDE 28 Mar 07:43:10 07:44:58 13° 71° (ENE) 07:47:13 436.750
PRISM 28 Mar 07:56:06 07:59:45 27° 265° (W) 08:03:22 437.425
CUBESAT XI-V 28 Mar 08:06:45 08:10:31 22° 268° (W) 08:14:09 437.345
GONETS M04 28 Mar 08:12:50 08:21:31 64° 267° (W) 08:30:11
STRAND 1 28 Mar 08:18:14 08:22:53 33° 264° (W) 08:27:29 437.568
Cubesat XI-IV 28 Mar 08:21:46 08:27:01 56° 289° (WNW) 08:32:12 437.490
CUTE-I 28 Mar 08:22:01 08:27:16 57° 289° (WNW) 08:32:26 437.470
JAS-2 28 Mar 08:27:40 08:30:32 12° 313° (NW) 08:32:56 435.910
AO-7 28 Mar 08:37:31 08:41:35 14° 317° (NW) 08:45:17 29.400- 29.500
VERMONT LUNAR 28 Mar 08:42:43 08:45:56 43° 176° (S) 08:49:09 437.305
CUSAT 1 28 Mar 08:43:34 08:47:35 78° 81° (E) 08:52:59 437.405
SEEDS 28 Mar 09:05:21 09:06:26 11° 87° (E) 09:07:47 437.485
PHONESAT 2.4 28 Mar 09:11:24 09:14:46 42° 172° (S) 09:18:08 2401.200-2431.200
DOVE 4 28 Mar 09:16:40 09:19:00 15° 90° (E) 09:21:35 437.250
GOMX 1 28 Mar 09:20:25 09:23:47 23° 94° (E) 09:27:21 467.674
DANDE 28 Mar 09:24:35 09:28:17 51° 261° (W) 09:33:12 436.750
COMPASS 1 28 Mar 09:28:36 09:31:17 17° 90° (E) 09:34:05 437.405
CANX-2 28 Mar 09:53:09 09:57:21 48° 99° (E) 10:01:32 2200.000
HO-68 28 Mar 10:00:06 10:07:10 56° 101° (E) 10:14:13 435.675
BRITE-PL 28 Mar 10:04:17 10:08:28 79° 284° (WNW) 10:12:47 437.365/2234.400
CUTE 1.7 + AOD 2 28 Mar 10:07:15 10:11:32 63° 100° (E) 10:15:48 437.475
GONETS M04 28 Mar 10:13:35 10:16:46 12° 287° (WNW) 10:19:15
UNISAT 6 28 Mar 10:17:39 10:21:08 25° 67° (ENE) 10:24:42 437.425
BEESAT 3 28 Mar 10:19:36 10:21:20 13° 110° (ESE) 10:23:15 437.485
VERMONT LUNAR 28 Mar 10:20:16 10:23:22 35° 192° (SSW) 10:26:29 437.305
POPSAT HIP 1 28 Mar 10:21:02 10:23:21 15° 64° (ENE) 10:25:50 437.405
DELFI C3 28 Mar 10:25:34 10:28:42 21° 92° (E) 10:31:54 145.870
BUGSAT 1 28 Mar 10:28:07 10:29:53 13° 63° (ENE) 10:31:48 437.445
TIGRISAT 28 Mar 10:28:15 10:31:59 31° 69° (ENE) 10:35:48 435.000
CUSAT 1 28 Mar 10:29:56 10:30:22 10° 267° (W) 10:30:28 437.405
NANOSAT C BR1 28 Mar 10:31:33 10:34:28 19° 65° (ENE) 10:37:30 145.865
DX 1 28 Mar 10:32:24 10:34:20 13° 89° (E) 10:36:29 434.975-435.025
POLYITAN 1 28 Mar 10:34:21 10:37:26 21° 66° (ENE) 10:40:37 437.675
AAUSAT CUBESAT 2 28 Mar 10:36:58 10:41:14 80° 102° (ESE) 10:45:28 437.432
SEEDS 28 Mar 10:38:33 10:42:50 71° 285° (WNW) 10:47:06 437.485
HUMSAT D 28 Mar 10:40:48 10:41:37 11° 87° (E) 10:42:43 437.325/437.525
CINEMA 3 28 Mar 10:42:06 10:46:26 62° 101° (E) 10:50:58 145.822/145.860
PHONESAT 2.4 28 Mar 10:49:29 10:52:50 41° 189° (S) 10:56:12 2401.200-2431.200
Oscar 11 28 Mar 10:52:17 10:56:35 54° 100° (E) 11:00:53 145.826/435.025
DOVE 4 28 Mar 10:52:58 10:57:09 54° 287° (WNW) 11:01:32 437.250
ANTELSAT 28 Mar 10:57:16 11:01:29 65° 74° (ENE) 11:05:47 437.575/2403.000
GOMX 1 28 Mar 10:58:14 11:02:02 33° 290° (WNW) 11:05:57 467.674
FUNcube-1 28 Mar 11:00:14 11:04:14 35° 97° (E) 11:08:19 145.935
UWE-3 28 Mar 11:00:50 11:05:02 44° 98° (E) 11:09:21 435.000/436.395/437.385
CUBEBUG 2 28 Mar 11:02:59 11:07:18 56° 100° (E) 11:11:46 437.445
COMPASS 1 28 Mar 11:03:11 11:07:17 46° 287° (WNW) 11:11:21 437.405
VELOX 1 28 Mar 11:06:54 11:08:59 14° 89° (E) 11:11:18 145.980
AISAT 28 Mar 11:10:37 11:13:09 15° 90° (E) 11:15:52 437.250
QB50P1 28 Mar 11:11:19 11:15:22 48° 72° (ENE) 11:19:28 145.935-145.965
ZACube-1 28 Mar 11:12:26 11:16:40 48° 99° (E) 11:20:59 437.345
DUCHIFAT 1 28 Mar 11:13:56 11:18:00 50° 73° (ENE) 11:22:06 145.980
BEESAT 2 28 Mar 11:16:24 11:20:16 41° 118° (ESE) 11:24:13 435.950
QB50P2 28 Mar 11:25:31 11:29:43 71° 75° (ENE) 11:33:56 145.880/145.840
CANX-2 28 Mar 11:30:01 11:32:58 18° 295° (WNW) 11:35:47 2200.000
ESTCUBE 1 28 Mar 11:35:45 11:38:15 15° 89° (E) 11:40:55 437.505/2401.250
50 SAT 28 Mar 11:39:50 11:43:25 30° 96° (E) 11:47:02 437.505
CUTE 1.7 + AOD 2 28 Mar 11:44:39 11:47:01 14° 297° (WNW) 11:49:14 437.475
HO-68 28 Mar 11:48:20 11:54:37 33° 299° (WNW) 12:00:45 435.675
UNISAT 6 28 Mar 11:54:01 11:57:51 31° 265° (W) 12:01:41 437.425
POPSAT HIP 1 28 Mar 11:54:42 11:58:51 56° 260° (W) 12:03:01 437.405
BEESAT 3 28 Mar 11:54:49 11:58:54 69° 306° (NW) 12:03:03 437.485
UKube-1 28 Mar 11:58:15 12:02:36 80° 284° (WNW) 12:06:54 .
VERMONT LUNAR 28 Mar 11:58:47 12:00:34 13° 208° (SSW) 12:02:17 437.305
DELFI C3 28 Mar 12:00:14 12:03:59 33° 290° (WNW) 12:07:40 145.870
BUGSAT 1 28 Mar 12:00:46 12:04:55 66° 259° (WSW) 12:09:02 437.445
TIGRISAT 28 Mar 12:05:16 12:08:48 24° 266° (W) 12:12:19 435.000
NANOSAT C BR1 28 Mar 12:06:03 12:10:04 42° 262° (W) 12:14:05 145.865
DX 1 28 Mar 12:06:47 12:11:06 62° 287° (WNW) 12:15:22 434.975-435.025
POLYITAN 1 28 Mar 12:09:13 12:13:10 38° 263° (W) 12:17:07 437.675
HUMSAT D 28 Mar 12:13:43 12:17:58 73° 285° (WNW) 12:22:14 437.325/437.525
AAUSAT CUBESAT 2 28 Mar 12:14:57 12:16:20 11° 298° (WNW) 12:17:30 437.432
AIST 2 28 Mar 12:20:35 12:24:49 69° 122° (ESE) 12:29:06 435.215
CINEMA 3 28 Mar 12:20:46 12:23:17 15° 296° (WNW) 12:25:42 145.822/145.860
PHONESAT 2.4 28 Mar 12:28:10 12:30:45 19° 204° (SSW) 12:33:17 2401.200-2431.200
Oscar 11 28 Mar 12:29:36 12:32:24 16° 296° (WNW) 12:35:02 145.826/435.025
FUNcube-1 28 Mar 12:36:53 12:40:26 24° 292° (WNW) 12:43:57 145.935
ANTELSAT 28 Mar 12:37:08 12:38:52 12° 273° (W) 12:40:22 437.575/2403.000
UWE-3 28 Mar 12:38:07 12:41:21 20° 294° (WNW) 12:44:30 435.000/436.395/437.385
CUBEBUG 2 28 Mar 12:40:54 12:43:40 16° 295° (WNW) 12:46:20 437.445
VELOX 1 28 Mar 12:41:41 12:46:04 61° 286° (WNW) 12:50:23 145.980
CUBEBUG 1 28 Mar 12:45:24 12:49:44 70° 102° (ESE) 12:54:02 437.445
AISAT 28 Mar 12:45:51 12:50:10 53° 288° (WNW) 12:54:27 437.250
QB50P1 28 Mar 12:48:56 12:51:35 16° 270° (W) 12:54:05 145.935-145.965
ZACube-1 28 Mar 12:49:42 12:52:45 18° 294° (WNW) 12:55:43 437.345
DUCHIFAT 1 28 Mar 12:51:40 12:54:11 15° 270° (W) 12:56:34 145.980
TISAT 1 28 Mar 12:54:22 12:57:21 19° 92° (E) 13:00:27 437.305
BEESAT 2 28 Mar 12:55:07 12:58:35 25° 317° (NW) 13:02:02 435.950
SPROUT 28 Mar 12:59:44 13:03:21 26° 94° (E) 13:07:01 437.525
QB50P2 28 Mar 13:05:05 13:06:13 11° 273° (W) 13:07:05 145.880/145.840
YUBILEINY 28 Mar 13:08:21 13:14:12 21° 79° (E) 13:20:27 435.215
Oscar 19 28 Mar 13:10:37 13:15:05 32° 67° (ENE) 13:19:40 437.125/150
ESTCUBE 1 28 Mar 13:11:07 13:15:35 58° 287° (WNW) 13:20:00 437.505/2401.250
50 SAT 28 Mar 13:14:59 13:18:13 23° 292° (WNW) 13:21:24 437.505
Gurwin Techsat 1B 28 Mar 13:19:16 13:21:03 12° 57° (ENE) 13:23:06 435.225
